Time,TemperatureF,DewpointF,PressureIn,WindDirection,WindDirectionDegrees,WindSpeedMPH,WindSpeedGustMPH,Humidity,HourlyPrecipIn,Conditions,Clouds,dailyrainin,SoftwareType,DateUTC
2013-05-29 00:00:00,59.0,58.2,30.13,SE,135,9.0,19.0,97,0.00,,,0.00,LWC V2.10 B1813,2013-05-29 04:00:00,
2013-05-29 00:10:00,59.1,58.2,30.14,SSE,158,8.0,15.0,97,0.00,,,0.00,LWC V2.10 B1813,2013-05-29 04:10:00,
2013-05-29 00:20:00,59.4,58.5,30.14,SSE,158,10.0,17.0,97,0.00,,,0.00,LWC V2.10 B1813,2013-05-29 04:20:00,
2013-05-29 00:30:00,59.5,58.6,30.13,SSE,158,11.0,18.0,97,0.00,,,0.00,LWC V2.10 B1813,2013-05-29 04:30:00,
2013-05-29 00:40:00,59.7,58.8,30.13,SSE,158,8.0,14.0,97,0.00,,,0.00,LWC V2.10 B1813,2013-05-29 04:40:00,
2013-05-29 00:50:00,59.7,58.8,30.13,SSE,158,9.0,16.0,97,0.00,,,0.00,LWC V2.10 B1813,2013-05-29 04:50:00,
2013-05-29 01:00:00,59.7,58.8,30.13,South,180,8.0,13.0,97,0.00,,,0.00,LWC V2.10 B1813,2013-05-29 05:00:00,
2013-05-29 01:10:00,59.9,59.0,30.13,SSE,158,10.0,15.0,97,0.00,,,0.00,LWC V2.10 B1813,2013-05-29 05:10:00,
2013-05-29 01:20:00,59.8,58.9,30.14,SSE,158,8.0,12.0,97,1.45,,,0.00,LWC V2.10 B1813,2013-05-29 05:20:00,
2013-05-29 01:30:00,59.5,58.6,30.13,SSE,158,5.0,8.0,97,0.23,,,0.00,LWC V2.10 B1813,2013-05-29 05:30:00,
2013-05-29 01:40:00,59.1,58.2,30.13,SSE,158,7.0,13.0,97,0.56,,,0.00,LWC V2.10 B1813,2013-05-29 05:40:00,
2013-05-29 01:50:00,58.8,58.2,30.12,SE,135,8.0,15.0,98,0.46,,,0.00,LWC V2.10 B1813,2013-05-29 05:50:00,
2013-05-29 02:00:00,58.9,58.3,30.13,South,180,7.0,13.0,98,0.83,,,0.00,LWC V2.10 B1813,2013-05-29 06:00:00,
2013-05-29 02:10:00,58.8,58.2,30.11,SE,135,4.0,9.0,98,0.06,,,0.00,LWC V2.10 B1813,2013-05-29 06:10:00,
2013-05-29 02:20:00,58.6,58.0,30.11,SE,135,6.0,11.0,98,0.09,,,0.00,LWC V2.10 B1813,2013-05-29 06:20:00,
2013-05-29 02:30:00,58.5,58.2,30.10,SSE,158,6.0,12.0,99,0.04,,,0.00,LWC V2.10 B1813,2013-05-29 06:30:00,
2013-05-29 02:40:00,58.4,57.8,30.10,SSE,158,6.0,11.0,98,0.00,,,0.00,LWC V2.10 B1813,2013-05-29 06:40:00,
2013-05-29 02:50:00,58.4,57.8,30.10,SE,135,5.0,10.0,98,0.00,,,0.00,LWC V2.10 B1813,2013-05-29 06:50:00,
2013-05-29 03:00:00,58.4,57.8,30.09,SSE,158,5.0,12.0,98,0.00,,,0.00,LWC V2.10 B1813,2013-05-29 07:00:00,
2013-05-29 03:10:00,58.4,57.8,30.09,SSE,158,5.0,10.0,98,0.00,,,0.00,LWC V2.10 B1813,2013-05-29 07:10:00,
2013-05-29 03:20:00,58.5,58.2,30.09,SE,135,4.0,8.0,99,0.00,,,0.00,LWC V2.10 B1813,2013-05-29 07:20:00,
2013-05-29 03:30:00,58.5,58.2,30.09,SE,135,5.0,8.0,99,0.00,,,0.00,LWC V2.10 B1813,2013-05-29 07:30:00,
2013-05-29 03:40:00,58.5,58.2,30.09,SE,135,4.0,10.0,99,0.00,,,0.00,LWC V2.10 B1813,2013-05-29 07:40:00,
2013-05-29 03:50:00,58.6,58.3,30.09,SE,135,4.0,10.0,99,0.00,,,0.00,LWC V2.10 B1813,2013-05-29 07:50:00,
2013-05-29 04:00:00,58.4,58.1,30.08,SE,135,4.0,8.0,99,0.00,,,0.00,LWC V2.10 B1813,2013-05-29 08:00:00,
2013-05-29 04:10:00,58.4,58.1,30.08,SSE,158,3.0,8.0,99,0.00,,,0.00,LWC V2.10 B1813,2013-05-29 08:10:00,
2013-05-29 04:20:00,58.3,58.0,30.08,SSE,158,4.0,8.0,99,0.00,,,0.00,LWC V2.10 B1813,2013-05-29 08:20:00,
2013-05-29 04:30:00,58.3,58.0,30.07,ESE,112,5.0,12.0,99,0.00,,,0.00,LWC V2.10 B1813,2013-05-29 08:30:00,
2013-05-29 04:40:00,58.2,57.9,30.07,SSE,158,6.0,12.0,99,0.00,,,0.00,LWC V2.10 B1813,2013-05-29 08:40:00,
2013-05-29 04:50:00,58.2,57.9,30.08,SSE,158,4.0,8.0,99,0.00,,,0.00,LWC V2.10 B1813,2013-05-29 08:50:00,
2013-05-29 05:00:00,58.2,57.9,30.07,SE,135,5.0,8.0,99,0.00,,,0.00,LWC V2.10 B1813,2013-05-29 09:00:00,
2013-05-29 05:10:00,58.2,57.9,30.07,SE,135,6.0,12.0,99,0.00,,,0.00,LWC V2.10 B1813,2013-05-29 09:10:00,
2013-05-29 05:20:00,58.2,57.9,30.07,SSE,158,5.0,10.0,99,0.00,,,0.00,LWC V2.10 B1813,2013-05-29 09:20:00,
2013-05-29 05:30:00,58.4,57.8,30.07,SSE,158,7.0,13.0,98,0.00,,,0.00,LWC V2.10 B1813,2013-05-29 09:30:00,
2013-05-29 05:40:00,58.4,57.8,30.07,SSE,158,8.0,11.0,98,0.00,,,0.00,LWC V2.10 B1813,2013-05-29 09:40:00,
2013-05-29 05:50:00,58.4,57.8,30.08,South,180,6.0,12.0,98,0.00,,,0.00,LWC V2.10 B1813,2013-05-29 09:50:00,
2013-05-29 06:00:00,58.3,57.7,30.08,SSE,158,8.0,11.0,98,0.00,,,0.00,LWC V2.10 B1813,2013-05-29 10:00:00,
2013-05-29 06:10:00,58.2,57.6,30.07,SSE,158,8.0,13.0,98,0.00,,,0.00,LWC V2.10 B1813,2013-05-29 10:10:00,
2013-05-29 06:20:00,58.2,57.6,30.08,SSE,158,8.0,12.0,98,0.00,,,0.00,LWC V2.10 B1813,2013-05-29 10:20:00,
2013-05-29 06:30:00,58.1,57.5,30.07,SSE,158,8.0,12.0,98,0.00,,,0.00,LWC V2.10 B1813,2013-05-29 10:30:00,
2013-05-29 06:40:00,58.0,57.4,30.08,SSE,158,7.0,12.0,98,0.00,,,0.00,LWC V2.10 B1813,2013-05-29 10:40:00,
2013-05-29 06:50:00,57.8,57.2,30.08,SSE,158,6.0,12.0,98,0.00,,,0.00,LWC V2.10 B1813,2013-05-29 10:50:00,
2013-05-29 07:00:00,57.8,57.2,30.08,South,180,6.0,8.0,98,0.00,,,0.00,LWC V2.10 B1813,2013-05-29 11:00:00,
2013-05-29 07:10:00,57.7,57.1,30.08,SSE,158,6.0,9.0,98,0.00,,,0.00,LWC V2.10 B1813,2013-05-29 11:10:00,
2013-05-29 07:20:00,57.7,57.1,30.08,SSE,158,7.0,10.0,98,0.00,,,0.00,LWC V2.10 B1813,2013-05-29 11:20:00,
2013-05-29 07:30:00,57.6,57.0,30.09,SSE,158,5.0,9.0,98,0.00,,,0.00,LWC V2.10 B1813,2013-05-29 11:30:00,
2013-05-29 07:40:00,57.8,57.2,30.09,SSW,202,2.0,5.0,98,0.00,,,0.00,LWC V2.10 B1813,2013-05-29 11:40:00,
2013-05-29 07:50:00,57.9,57.3,30.09,SSW,202,2.0,4.0,98,0.00,,,0.00,LWC V2.10 B1813,2013-05-29 11:50:00,
2013-05-29 08:00:00,58.0,57.4,30.09,SSW,202,4.0,6.0,98,0.00,,,0.00,LWC V2.10 B1813,2013-05-29 12:00:00,
2013-05-29 08:10:00,58.0,57.4,30.08,SSW,202,4.0,8.0,98,0.00,,,0.00,LWC V2.10 B1813,2013-05-29 12:10:00,
2013-05-29 08:20:00,57.8,57.2,30.09,SSE,158,6.0,9.0,98,0.00,,,0.00,LWC V2.10 B1813,2013-05-29 12:20:00,
2013-05-29 08:30:00,57.8,57.2,30.08,South,180,6.0,9.0,98,0.00,,,0.00,LWC V2.10 B1813,2013-05-29 12:30:00,
2013-05-29 08:40:00,57.8,57.2,30.08,SSE,158,6.0,8.0,98,0.00,,,0.00,LWC V2.10 B1813,2013-05-29 12:40:00,
2013-05-29 08:50:00,58.1,57.5,30.09,South,180,6.0,9.0,98,0.00,,,0.00,LWC V2.10 B1813,2013-05-29 12:50:00,
2013-05-29 09:00:00,58.4,57.8,30.08,SSE,158,6.0,9.0,98,0.00,,,0.00,LWC V2.10 B1813,2013-05-29 13:00:00,
2013-05-29 09:10:00,58.6,58.0,30.08,South,180,5.0,8.0,98,0.00,,,0.00,LWC V2.10 B1813,2013-05-29 13:10:00,
2013-05-29 09:20:00,58.4,57.8,30.08,SSE,158,6.0,8.0,98,0.00,,,0.00,LWC V2.10 B1813,2013-05-29 13:20:00,
2013-05-29 09:30:00,58.3,57.7,30.08,SSE,158,6.0,9.0,98,0.00,,,0.00,LWC V2.10 B1813,2013-05-29 13:30:00,
2013-05-29 09:40:00,58.4,57.8,30.08,SSE,158,6.0,9.0,98,0.00,,,0.00,LWC V2.10 B1813,2013-05-29 13:40:00,
2013-05-29 09:50:00,58.6,58.0,30.08,SSE,158,6.0,8.0,98,0.00,,,0.00,LWC V2.10 B1813,2013-05-29 13:50:00,
2013-05-29 10:00:00,58.7,58.1,30.08,SSE,158,6.0,9.0,98,0.00,,,0.00,LWC V2.10 B1813,2013-05-29 14:00:00,
2013-05-29 10:10:00,59.0,58.4,30.08,SSE,158,5.0,9.0,98,0.00,,,0.00,LWC V2.10 B1813,2013-05-29 14:10:00,
2013-05-29 10:20:00,59.1,58.8,30.08,SSE,158,6.0,9.0,99,0.00,,,0.00,LWC V2.10 B1813,2013-05-29 14:20:00,
2013-05-29 10:30:00,59.2,58.6,30.08,SSE,158,6.0,10.0,98,0.00,,,0.00,LWC V2.10 B1813,2013-05-29 14:30:00,
2013-05-29 10:40:00,59.1,58.5,30.08,SSE,158,6.0,9.0,98,0.00,,,0.00,LWC V2.10 B1813,2013-05-29 14:40:00,
2013-05-29 10:50:00,59.1,58.5,30.08,SSE,158,7.0,9.0,98,0.00,,,0.00,LWC V2.10 B1813,2013-05-29 14:50:00,
2013-05-29 11:00:00,59.3,59.0,30.08,South,180,6.0,9.0,99,0.00,,,0.00,LWC V2.10 B1813,2013-05-29 15:00:00,
2013-05-29 11:10:00,59.5,58.9,30.08,SSE,158,6.0,10.0,98,0.00,,,0.00,LWC V2.10 B1813,2013-05-29 15:10:00,
2013-05-29 11:20:00,59.8,59.2,30.08,SSE,158,4.0,7.0,98,0.00,,,0.00,LWC V2.10 B1813,2013-05-29 15:20:00,
2013-05-29 11:30:00,59.9,59.3,30.07,South,180,4.0,8.0,98,0.00,,,0.00,LWC V2.10 B1813,2013-05-29 15:30:00,
2013-05-29 11:40:00,60.4,59.8,30.07,SSE,158,4.0,7.0,98,0.00,,,0.00,LWC V2.10 B1813,2013-05-29 15:40:00,
2013-05-29 11:50:00,60.7,60.1,30.07,SSE,158,5.0,8.0,98,0.00,,,0.00,LWC V2.10 B1813,2013-05-29 15:50:00,
2013-05-29 12:00:00,60.9,60.3,30.08,SSE,158,4.0,7.0,98,0.00,,,0.00,LWC V2.10 B1813,2013-05-29 16:00:00,
2013-05-29 12:10:00,61.3,60.7,30.08,SSE,158,6.0,9.0,98,0.00,,,0.00,LWC V2.10 B1813,2013-05-29 16:10:00,
2013-05-29 12:20:00,61.8,60.9,30.08,South,180,6.0,9.0,97,0.00,,,0.00,LWC V2.10 B1813,2013-05-29 16:20:00,
2013-05-29 12:30:00,61.9,60.7,30.08,SSE,158,7.0,11.0,96,0.00,,,0.00,LWC V2.10 B1813,2013-05-29 16:30:00,
2013-05-29 12:40:00,62.0,60.5,30.07,SSE,158,8.0,12.0,95,0.00,,,0.00,LWC V2.10 B1813,2013-05-29 16:40:00,
2013-05-29 12:50:00,62.1,60.7,30.07,SSE,158,7.0,13.0,95,0.00,,,0.00,LWC V2.10 B1813,2013-05-29 16:50:00,
2013-05-29 13:00:00,62.6,61.1,30.07,SSE,158,9.0,15.0,95,0.00,,,0.00,LWC V2.10 B1813,2013-05-29 17:00:00,
2013-05-29 13:10:00,62.7,61.2,30.06,SSE,158,8.0,12.0,95,0.00,,,0.00,LWC V2.10 B1813,2013-05-29 17:10:00,
2013-05-29 13:20:00,62.7,61.2,30.07,SSE,158,8.0,13.0,95,0.00,,,0.00,LWC V2.10 B1813,2013-05-29 17:20:00,
2013-05-29 13:30:00,63.1,61.6,30.06,SSE,158,7.0,12.0,95,0.00,,,0.00,LWC V2.10 B1813,2013-05-29 17:30:00,
2013-05-29 13:40:00,64.3,62.8,30.06,SE,135,6.0,10.0,95,0.00,,,0.00,LWC V2.10 B1813,2013-05-29 17:40:00,
2013-05-29 13:50:00,64.8,63.0,30.05,SE,135,6.0,12.0,94,0.00,,,0.00,LWC V2.10 B1813,2013-05-29 17:50:00,
2013-05-29 14:00:00,64.6,62.8,30.05,SSE,158,7.0,11.0,94,0.00,,,0.00,LWC V2.10 B1813,2013-05-29 18:00:00,
2013-05-29 14:10:00,64.7,62.6,30.05,SSE,158,9.0,14.0,93,0.00,,,0.00,LWC V2.10 B1813,2013-05-29 18:10:00,
2013-05-29 14:20:00,64.7,62.6,30.05,SSE,158,9.0,15.0,93,0.00,,,0.00,LWC V2.10 B1813,2013-05-29 18:20:00,
2013-05-29 14:30:00,64.9,62.8,30.05,SSE,158,8.0,12.0,93,0.00,,,0.00,LWC V2.10 B1813,2013-05-29 18:30:00,
2013-05-29 14:40:00,65.6,63.5,30.05,SE,135,5.0,11.0,93,0.00,,,0.00,LWC V2.10 B1813,2013-05-29 18:40:00,
2013-05-29 14:50:00,66.1,64.0,30.05,SE,135,6.0,11.0,93,0.00,,,0.00,LWC V2.10 B1813,2013-05-29 18:50:00,
2013-05-29 15:00:00,65.9,63.8,30.05,SSE,158,10.0,15.0,93,0.00,,,0.00,LWC V2.10 B1813,2013-05-29 19:00:00,
2013-05-29 15:10:00,66.1,64.0,30.04,SSE,158,9.0,12.0,93,0.00,,,0.00,LWC V2.10 B1813,2013-05-29 19:10:00,
2013-05-29 15:20:00,66.2,64.1,30.04,SSE,158,9.0,14.0,93,0.00,,,0.00,LWC V2.10 B1813,2013-05-29 19:20:00,
2013-05-29 15:30:00,66.3,64.2,30.04,SSE,158,10.0,15.0,93,0.00,,,0.00,LWC V2.10 B1813,2013-05-29 19:30:00,
2013-05-29 15:40:00,66.2,64.1,30.04,SSE,158,10.0,15.0,93,0.00,,,0.00,LWC V2.10 B1813,2013-05-29 19:40:00,
2013-05-29 15:50:00,66.1,64.0,30.03,SSE,158,11.0,15.0,93,0.00,,,0.00,LWC V2.10 B1813,2013-05-29 19:50:00,
2013-05-29 16:00:00,65.7,63.6,30.03,SSE,158,11.0,17.0,93,0.00,,,0.00,LWC V2.10 B1813,2013-05-29 20:00:00,
2013-05-29 16:10:00,64.7,62.6,30.03,SSE,158,9.0,15.0,93,0.00,,,0.00,LWC V2.10 B1813,2013-05-29 20:10:00,
2013-05-29 16:20:00,64.1,62.3,30.03,SSE,158,8.0,13.0,94,0.00,,,0.00,LWC V2.10 B1813,2013-05-29 20:20:00,
2013-05-29 16:30:00,64.0,62.2,30.03,SSE,158,7.0,12.0,94,0.00,,,0.00,LWC V2.10 B1813,2013-05-29 20:30:00,
2013-05-29 16:40:00,63.9,62.1,30.03,SE,135,7.0,11.0,94,0.00,,,0.00,LWC V2.10 B1813,2013-05-29 20:40:00,
2013-05-29 16:50:00,63.2,61.4,30.03,SSE,158,7.0,13.0,94,0.00,,,0.00,LWC V2.10 B1813,2013-05-29 20:50:00,
2013-05-29 17:00:00,62.9,61.1,30.02,SSE,158,7.0,12.0,94,0.00,,,0.00,LWC V2.10 B1813,2013-05-29 21:00:00,
2013-05-29 17:10:00,62.6,61.1,30.02,SSE,158,8.0,13.0,95,0.00,,,0.00,LWC V2.10 B1813,2013-05-29 21:10:00,
2013-05-29 17:20:00,62.6,61.1,30.02,SSE,158,10.0,14.0,95,0.00,,,0.00,LWC V2.10 B1813,2013-05-29 21:20:00,
2013-05-29 17:30:00,62.6,61.1,30.02,SSE,158,10.0,15.0,95,0.00,,,0.00,LWC V2.10 B1813,2013-05-29 21:30:00,
2013-05-29 17:40:00,62.6,61.4,30.02,SSE,158,10.0,14.0,96,0.00,,,0.00,LWC V2.10 B1813,2013-05-29 21:40:00,
2013-05-29 17:50:00,63.0,61.8,30.02,SSE,158,8.0,11.0,96,0.00,,,0.00,LWC V2.10 B1813,2013-05-29 21:50:00,
2013-05-29 18:00:00,64.1,62.6,30.01,SSE,158,8.0,11.0,95,0.00,,,0.00,LWC V2.10 B1813,2013-05-29 22:00:00,
2013-05-29 18:10:00,65.0,63.2,30.01,SSE,158,9.0,12.0,94,0.00,,,0.00,LWC V2.10 B1813,2013-05-29 22:10:00,
2013-05-29 18:20:00,64.3,62.2,30.01,SSE,158,9.0,12.0,93,0.00,,,0.00,LWC V2.10 B1813,2013-05-29 22:20:00,
2013-05-29 18:30:00,64.1,62.3,30.00,SSE,158,8.0,12.0,94,0.00,,,0.00,LWC V2.10 B1813,2013-05-29 22:30:00,
2013-05-29 18:40:00,64.6,62.8,30.01,SSE,158,7.0,10.0,94,0.00,,,0.00,LWC V2.10 B1813,2013-05-29 22:40:00,
2013-05-29 18:50:00,65.3,63.2,30.01,SSE,158,8.0,13.0,93,0.00,,,0.00,LWC V2.10 B1813,2013-05-29 22:50:00,
2013-05-29 19:00:00,65.2,63.1,30.01,South,180,9.0,14.0,93,0.00,,,0.00,LWC V2.10 B1813,2013-05-29 23:00:00,
2013-05-29 19:10:00,65.0,62.9,30.00,SSE,158,9.0,14.0,93,0.00,,,0.00,LWC V2.10 B1813,2013-05-29 23:10:00,
2013-05-29 19:20:00,64.7,62.6,30.00,SSE,158,10.0,16.0,93,0.00,,,0.00,LWC V2.10 B1813,2013-05-29 23:20:00,
2013-05-29 19:30:00,64.2,62.1,30.00,SSE,158,10.0,15.0,93,0.00,,,0.00,LWC V2.10 B1813,2013-05-29 23:30:00,
2013-05-29 19:40:00,64.0,62.2,29.99,SSE,158,10.0,15.0,94,0.00,,,0.00,LWC V2.10 B1813,2013-05-29 23:40:00,
2013-05-29 19:50:00,63.9,62.1,29.99,SSE,158,10.0,15.0,94,0.00,,,0.00,LWC V2.10 B1813,2013-05-29 23:50:00,
2013-05-29 20:00:00,63.9,62.1,29.99,SSE,158,9.0,13.0,94,0.00,,,0.00,LWC V2.10 B1813,2013-05-30 00:00:00,
2013-05-29 20:10:00,64.1,62.3,30.00,South,180,9.0,13.0,94,0.00,,,0.00,LWC V2.10 B1813,2013-05-30 00:10:00,
2013-05-29 20:20:00,64.1,62.3,30.00,South,180,8.0,13.0,94,0.00,,,0.00,LWC V2.10 B1813,2013-05-30 00:20:00,
2013-05-29 20:30:00,64.1,62.3,30.00,South,180,9.0,14.0,94,0.00,,,0.00,LWC V2.10 B1813,2013-05-30 00:30:00,
2013-05-29 20:40:00,64.0,62.2,30.01,South,180,8.0,12.0,94,0.00,,,0.00,LWC V2.10 B1813,2013-05-30 00:40:00,
2013-05-29 20:50:00,64.4,62.6,30.00,SSE,158,7.0,13.0,94,0.00,,,0.00,LWC V2.10 B1813,2013-05-30 00:50:00,
2013-05-29 21:00:00,64.6,62.8,30.01,South,180,7.0,10.0,94,0.00,,,0.00,LWC V2.10 B1813,2013-05-30 01:00:00,
2013-05-29 21:10:00,64.4,62.6,30.01,SSE,158,8.0,12.0,94,0.00,,,0.00,LWC V2.10 B1813,2013-05-30 01:10:00,
2013-05-29 21:20:00,64.4,62.6,30.00,SSE,158,10.0,15.0,94,0.00,,,0.00,LWC V2.10 B1813,2013-05-30 01:20:00,
2013-05-29 21:30:00,64.4,62.3,30.00,SSE,158,11.0,17.0,93,0.00,,,0.00,LWC V2.10 B1813,2013-05-30 01:30:00,
2013-05-29 21:40:00,64.4,62.3,30.02,South,180,10.0,15.0,93,0.00,,,0.00,LWC V2.10 B1813,2013-05-30 01:40:00,
2013-05-29 21:50:00,64.6,62.5,30.02,South,180,9.0,16.0,93,0.00,,,0.00,LWC V2.10 B1813,2013-05-30 01:50:00,
2013-05-29 22:00:00,64.4,62.3,30.02,SSE,158,9.0,14.0,93,0.00,,,0.00,LWC V2.10 B1813,2013-05-30 02:00:00,
2013-05-29 22:10:00,64.1,62.3,30.03,SSE,158,8.0,14.0,94,0.00,,,0.00,LWC V2.10 B1813,2013-05-30 02:10:00,
2013-05-29 22:20:00,63.9,62.1,30.03,SSE,158,11.0,16.0,94,0.00,,,0.00,LWC V2.10 B1813,2013-05-30 02:20:00,
2013-05-29 22:30:00,64.0,62.2,30.03,SSE,158,10.0,14.0,94,0.00,,,0.00,LWC V2.10 B1813,2013-05-30 02:30:00,
2013-05-29 22:40:00,64.7,62.9,30.03,SSE,158,9.0,17.0,94,0.00,,,0.00,LWC V2.10 B1813,2013-05-30 02:40:00,
2013-05-29 22:50:00,65.4,63.3,30.04,South,180,9.0,15.0,93,0.00,,,0.00,LWC V2.10 B1813,2013-05-30 02:50:00,
2013-05-29 23:00:00,65.6,63.2,30.04,South,180,7.0,12.0,92,0.00,,,0.00,LWC V2.10 B1813,2013-05-30 03:00:00,
2013-05-29 23:10:00,65.7,63.3,30.05,SSW,202,4.0,8.0,92,0.00,,,0.00,LWC V2.10 B1813,2013-05-30 03:10:00,
2013-05-29 23:20:00,65.4,63.0,30.08,West,270,5.0,10.0,92,0.00,,,0.00,LWC V2.10 B1813,2013-05-30 03:20:00,
2013-05-29 23:30:00,65.3,62.9,30.07,NNW,338,5.0,10.0,92,0.00,,,0.00,LWC V2.10 B1813,2013-05-30 03:30:00,
2013-05-29 23:40:00,65.1,62.7,30.08,NNW,338,3.0,5.0,92,0.00,,,0.00,LWC V2.10 B1813,2013-05-30 03:40:00,
2013-05-29 23:50:00,65.0,62.9,30.08,North,0,1.0,3.0,93,0.00,,,0.00,LWC V2.10 B1813,2013-05-30 03:50:00,